EW3995 Weather Reports


Display with metric or nautical units.
time (UTC)temp
F
wind
direction
speed
MPH
gust
MPH
rain 1hr
in
rain 24hr
in
rain mn
in
humidity
%
barometer
mb
20190123114852 -5 184 0.0 1.0 0.00 0.00 0.00 59 1013.7
20190123113851 -4 158 0.0 2.0 0.00 0.00 0.00 59 1012.7
20190123112851 -3 214 1.0 2.0 0.00 0.00 0.00 59 1012.7
20190123111721 -2 200 1.0 2.0 0.00 0.00 0.00 59 1012.7
20190123110721 -2 212 1.0 3.0 0.00 0.00 0.00 59 1012.7
20190123105722 -1 227 1.0 3.0 0.00 0.00 0.00 59 1012.7
20190123104722 1 231 2.0 3.0 0.00 0.00 0.00 59 1012.7
20190123103721 2 218 1.0 4.0 0.00 0.00 0.00 59 1011.6
20190123102721 2 190 1.0 3.0 0.00 0.00 0.00 59 1011.6
20190123101721 2 205 0.0 1.0 0.00 0.00 0.00 59 1011.6
20190123100722 2 227 0.0 2.0 0.00 0.00 0.00 59 1010.6
20190123095722 3 236 0.0 2.0 0.00 0.00 0.00 59 1011.6
20190123094722 4 197 0.0 2.0 0.00 0.00 0.00 59 1011.6
20190123093721 4 272 0.0 2.0 0.00 0.00 0.00 59 1011.6
20190123092722 3 256 1.0 2.0 0.00 0.00 0.00 59 1012.7
20190123091721 2 270 1.0 2.0 0.00 0.00 0.00 59 1012.7
20190123090723 3 198 1.0 2.0 0.00 0.00 0.00 59 1011.6
20190123085721 4 215 1.0 3.0 0.00 0.00 0.00 59 1011.6
20190123084721 5 215 0.0 2.0 0.00 0.00 0.00 59 1011.6
20190123083721 6 241 0.0 1.0 0.00 0.00 0.00 59 1011.6
20190123082721 4 251 0.0 2.0 0.00 0.00 0.00 59 1010.6
20190123081722 5 212 0.0 1.0 0.00 0.00 0.00 59 1010.6
20190123080721 5 223 0.0 2.0 0.00 0.00 0.00 59 1010.6
20190123075721 6 252 0.0 2.0 0.00 0.00 0.00 59 1010.6
20190123074721 6 207 1.0 2.0 0.00 0.00 0.00 59 1010.6
20190123073551 5 261 0.0 2.0 0.00 0.00 0.00 59 1010.6
20190123072551 4 158 0.0 1.0 0.00 0.00 0.00 59 1010.6
20190123071552 3 158 0.0 1.0 0.00 0.00 0.00 59 1010.6
20190123070551 5 158 0.0 2.0 0.00 0.00 0.00 59 1009.6
20190123065251 6 158 0.0 1.0 0.00 0.00 0.00 59 1009.6
20190123064251 6 158 0.0 1.0 0.00 0.00 0.00 59 1009.6
20190123063251 5 158 0.0 1.0 0.00 0.00 0.00 59 1009.6
20190123062250 1 158 0.0 0.0 0.00 0.00 0.00 59 1008.5
20190123061121 -1 158 0.0 0.0 0.00 0.00 0.00 59 1009.6
20190123060121 -2 158 0.0 0.0 0.00 0.00 0.00 59 1009.6
20190123055121 -4 158 0.0 1.0 0.00 0.00 0.00 59 1009.6
20190123054121 -5 158 0.0 0.0 0.00 0.00 0.00 59 1009.6
20190123053121 -4 158 0.0 0.0 0.00 0.00 0.00 59 1009.6
20190123052121 -4 158 0.0 0.0 0.00 0.00 0.00 59 1009.6
20190123051121 -4 158 0.0 0.0 0.00 0.00 0.00 59 1008.5
20190123050122 -3 158 0.0 0.0 0.00 0.00 0.00 59 1008.5
20190123045121 -3 158 0.0 0.0 0.00 0.00 0.00 59 1008.5
20190123044121 -5 158 0.0 0.0 0.00 0.00 0.00 59 1008.5
20190123043121 -6 158 0.0 1.0 0.00 0.00 0.00 59 1008.5
20190123042121 -7 158 0.0 0.0 0.00 0.00 0.00 59 1007.5
20190123041121 -6 158 0.0 0.0 0.00 0.00 0.00 59 1007.5
20190123040121 -5 158 0.0 0.0 0.00 0.00 0.00 59 1007.5
20190123034951 -4 158 0.0 0.0 0.00 0.00 0.00 59 1006.4
20190123033951 -2 158 0.0 0.0 0.00 0.00 0.00 59 1007.5
20190123032951 -1 158 0.0 0.0 0.00 0.00 0.00 59 1007.5
20190123031951 -1 158 0.0 0.0 0.00 0.00 0.00 59 1006.4
20190123030951 -1 158 0.0 0.0 0.00 0.00 0.00 59 1007.5
20190123025821 -2 158 0.0 0.0 0.00 0.00 0.00 59 1007.5
20190123024821 -3 158 0.0 0.0 0.00 0.00 0.00 59 1007.5
20190123023651 -3 158 0.0 0.0 0.00 0.00 0.00 59 1007.5
20190123022651 -3 158 0.0 0.0 0.00 0.00 0.00 59 1007.5
20190123021651 -3 158 0.0 0.0 0.00 0.00 0.00 59 1007.5
20190123020651 -2 158 0.0 0.0 0.00 0.00 0.00 59 1007.5
20190123015651 -2 158 0.0 0.0 0.00 0.00 0.00 59 1006.4
20190123014651 -1 158 0.0 0.0 0.00 0.00 0.00 59 1006.4
20190123013651 -1 158 0.0 0.0 0.00 0.00 0.00 59 1006.4
20190123012651 0 158 0.0 0.0 0.00 0.00 0.00 59 1006.4
20190123011651 1 158 0.0 0.0 0.00 0.00 0.00 59 1006.4
20190123010651 2 158 0.0 0.0 0.00 0.00 0.00 59 1006.4
20190123005651 2 158 0.0 0.0 0.00 0.00 0.00 59 1006.4
20190123004651 2 158 0.0 0.0 0.00 0.00 0.00 59 1006.4
20190123003651 2 158 0.0 0.0 0.00 0.00 0.00 59 1006.4
20190123002650 1 158 0.0 0.0 0.00 0.00 0.00 59 1006.4
20190123001652 1 158 0.0 0.0 0.00 0.00 0.00 59 1006.4
20190123000651 0 158 0.0 0.0 0.00 0.00 0.00 59 1006.4
20190122235651 -1 158 0.0 0.0 0.00 0.00 0.00 59 1005.4
20190122234651 -1 158 0.0 0.0 0.00 0.00 0.00 59 1005.4
20190122233651 -1 158 0.0 0.0 0.00 0.00 0.00 59 1005.4
20190122232651 -1 158 0.0 0.0 0.00 0.00 0.00 59 1005.4
20190122231050 -1 158 0.0 0.0 0.00 0.00 0.00 59 1005.4
20190122225425 0 158 0.0 0.0 0.00 0.00 0.00 59 1004.4
20190122224425 0 158 0.0 0.0 0.00 0.00 0.00 59 1004.4
20190122223425 0 0.0 0.0 0.00 0.00 0.00 59 1004.4
20190122222425 0 0.0 0.0 0.00 0.00 0.00 59 1005.4
20190122221425 0 0.0 0.0 0.00 0.00 0.00 59 1005.4
20190122220427 0 158 0.0 0.0 0.00 0.00 0.00 59 1004.4
20190122215425 0 158 0.0 0.0 0.00 0.00 0.00 59 1005.4
20190122214425 1 158 0.0 0.0 0.00 0.00 0.00 59 1005.4
20190122213425 2 158 0.0 0.0 0.00 0.00 0.00 59 1005.4
20190122212425 2 158 0.0 0.0 0.00 0.00 0.00 59 1005.4
20190122211425 2 158 0.0 0.0 0.00 0.00 0.00 59 1005.4
20190122210425 1 0.0 0.0 0.00 0.00 0.00 59 1005.4
20190122205425 0 158 0.0 0.0 0.00 0.00 0.00 59 1005.4
20190122204425 -1 158 0.0 0.0 0.00 0.00 0.00 59 1005.4
20190122203426 -1 158 0.0 0.0 0.00 0.00 0.00 59 1005.4
20190122202425 0 158 0.0 0.0 0.00 0.00 0.00 59 1004.4
20190122201425 1 158 0.0 0.0 0.00 0.00 0.00 59 1004.4
20190122200425 1 158 0.0 0.0 0.00 0.00 0.00 59 1004.4
20190122195425 3 158 0.0 0.0 0.00 0.00 0.00 59 1003.3
20190122194426 3 158 0.0 0.0 0.00 0.00 0.00 59 1003.3
20190122193425 4 158 0.0 0.0 0.00 0.00 0.00 59 1004.4
20190122192425 4 158 0.0 0.0 0.00 0.00 0.00 59 1003.3
20190122191427 4 158 0.0 0.0 0.00 0.00 0.00 59 1003.3
20190122190257 5 158 0.0 0.0 0.00 0.00 0.00 59 1003.3
20190122185254 5 158 0.0 1.0 0.00 0.00 0.00 59 1003.3
20190122184253 6 158 0.0 0.0 0.00 0.00 0.00 59 1002.3
20190122183253 6 158 0.0 0.0 0.00 0.00 0.00 59 1002.3
20190122182254 5 158 0.0 0.0 0.00 0.00 0.00 59 1002.3
20190122181254 4 158 0.0 0.0 0.00 0.00 0.00 59 1002.3
20190122180253 4 158 0.0 0.0 0.00 0.00 0.00 59 1002.3
20190122175254 5 158 0.0 0.0 0.00 0.00 0.00 59 1002.3
20190122174253 6 158 0.0 0.0 0.00 0.00 0.00 59 1003.3
20190122173254 6 180 0.0 1.0 0.00 0.00 0.00 59 1003.3
20190122172253 5 202 0.0 1.0 0.00 0.00 0.00 59 1003.3
20190122171254 5 202 0.0 0.0 0.00 0.00 0.00 59 1003.3
20190122170254 5 202 0.0 0.0 0.00 0.00 0.00 59 1003.3
20190122165253 5 0.0 0.0 0.00 0.00 0.00 59 1003.3
20190122164254 5 158 0.0 0.0 0.00 0.00 0.00 59 1003.3
20190122163253 5 158 0.0 0.0 0.00 0.00 0.00 59 1003.3
20190122162253 4 202 0.0 0.0 0.00 0.00 0.00 59 1003.3
20190122161253 3 248 0.0 0.0 0.00 0.00 0.00 59 1003.3
20190122160254 3 188 0.0 0.0 0.00 0.00 0.00 59 1003.3
20190122155253 3 158 0.0 1.0 0.00 0.00 0.00 59 1003.3
20190122154253 2 158 0.0 1.0 0.00 0.00 0.00 59 1003.3
20190122153253 2 0.0 0.0 0.00 0.00 0.00 59 1003.3
20190122152253 2 0.0 0.0 0.00 0.00 0.00 59 1003.3
20190122151253 3 0.0 0.0 0.00 0.00 0.00 59 1002.3
20190122150253 1 0.0 0.0 0.00 0.00 0.00 59 1002.3
20190122145254 0 0.0 0.0 0.00 0.00 0.00 59 1002.3
20190122144253 1 248 0.0 0.0 0.00 0.00 0.00 59 1002.3
20190122143254 2 248 0.0 0.0 0.00 0.00 0.00 59 1002.3
20190122142254 2 248 0.0 0.0 0.00 0.00 0.00 59 1002.3
20190122141253 3 248 0.0 1.0 0.00 0.00 0.00 59 1002.3
20190122140253 2 230 0.0 1.0 0.00 0.00 0.00 59 1002.3
20190122135253 2 158 0.0 0.0 0.00 0.00 0.00 59 1002.3
20190122133954 3 158 0.0 0.0 0.00 0.00 0.00 59 1002.3
20190122132953 4 150 0.0 1.0 0.00 0.00 0.00 59 1002.3
20190122131953 5 158 0.0 0.0 0.00 0.00 0.00 59 1002.3
20190122130956 5 180 0.0 0.0 0.00 0.00 0.00 59 1001.3
20190122125954 6 180 0.0 0.0 0.00 0.00 0.00 59 1001.3
20190122124953 6 180 0.0 0.0 0.00 0.00 0.00 59 1001.3
20190122123953 6 180 0.0 0.0 0.00 0.00 0.00 59 1001.3
20190122122954 7 120 0.0 0.0 0.00 0.00 0.00 59 1001.3
20190122121953 7 135 0.0 0.0 0.00 0.00 0.00 59 1001.3
20190122120953 7 135 0.0 0.0 0.00 0.00 0.00 59 1001.3
20190122115954 8 135 0.0 0.0 0.00 0.00 0.00 59 1001.3